Home   Weather   Woodbridge   Past weeks
Flag for USA

Past Weather in Woodbridge, South Carolina, USA — Yesterday and Last 2 Weeks

Now
53 °F

Clear.


Feels Like: 53 °F
Forecast: 69 / 44 °F
Wind: 3 mph from Southwest

Location: Florence Regional Airport

Current Time: Oct 17, 2019 at 9:58:29 pm

Latest Report: Oct 17, 2019 at 8:53 pm


Visibility: 10 mi

Pressure: 29.89 "Hg

Humidity: 74%

Dew Point: 45 °F

Location of WoodbridgeLocation

Past Weather in Woodbridge — Graph

°F

Woodbridge Temperature Yesterday

Maximum temperature yesterday: 78 °F (at 2:19 pm)
Minimum temperature yesterday: 59 °F (at 11:53 pm)
Average temperature yesterday: 68 °F

High & Low Weather Summary for the Past Weeks

 TemperatureHumidityPressure
High99 °F (Oct 3, 2:53 pm)97% (Oct 11, 5:53 am)30.25 "Hg (Oct 11, 5:53 am)
Low45 °F (Oct 17, 7:53 am)28% (Oct 17, 3:53 pm)29.64 "Hg (Oct 16, 3:00 pm)
Average71 °F72%30.03 "Hg
* Reported Oct 2 7:53 pm — Oct 17 7:53 pm, Woodbridge. Weather by CustomWeather, © 2019

Note: Actual official high and low records may vary slightly from our data, if they occured in-between our weather recording intervals... More about our weather records

Advertising

Woodbridge Weather History for the Previous 24 Hours

Scroll right to see more
 ConditionsComfort  
Time TempWeatherWind HumidityBarometerVisibility
7:53 pm
Thu, Oct 17
57 °FClear.No wind62%29.88 "Hg10 mi
6:53 pm62 °FClear.3 mph44%29.86 "Hg10 mi
5:53 pm69 °FSunny.9 mph30%29.84 "Hg10 mi
4:53 pm71 °FSunny.9 mph29%29.84 "Hg10 mi
3:53 pm70 °FSunny.8 mph28%29.85 "Hg10 mi
2:53 pm69 °FSunny.14 mph30%29.86 "Hg10 mi
1:53 pm68 °FSunny.12 mph31%29.88 "Hg10 mi
12:53 pm65 °FSunny.9 mph34%29.91 "Hg10 mi
11:53 am63 °FSunny.9 mph37%29.93 "Hg10 mi
9:53 am57 °FSunny.7 mph47%29.94 "Hg10 mi
8:53 am53 °FSunny.6 mph64%29.91 "Hg10 mi
7:53 am45 °FSunny.5 mph82%29.90 "Hg10 mi
6:53 am47 °FClear.5 mph77%29.88 "Hg10 mi
5:53 am50 °FClear.6 mph71%29.86 "Hg10 mi
4:53 am50 °FClear.6 mph71%29.85 "Hg10 mi
3:53 am52 °FClear.5 mph66%29.85 "Hg10 mi
2:53 am53 °FClear.6 mph66%29.85 "Hg10 mi
1:53 am54 °FClear.6 mph64%29.83 "Hg10 mi
12:53 am53 °FClear.3 mph69%29.84 "Hg10 mi
11:53 pm
Wed, Oct 16
59 °FClear.5 mph49%29.83 "Hg10 mi
10:53 pm61 °FPassing clouds.7 mph44%29.81 "Hg10 mi
9:53 pm66 °FPassing clouds.14 mph39%29.78 "Hg10 mi
Weather by CustomWeather, © 2019

See weather overview